Location: Boston
(42.3580°N, 71.0600°W)
Time: 10:59:50
(UTC-05:00)

Tiangong 1 - Pass Details

Date: 14 October 2017
Orbit: 275 x 302 km, 42.8° (Epoch: 14 December)

Event Time Altitude Azimuth Distance (km) Brightness Sun altitude
Rises 18:18:49 0° 279° (W) 2,103 6.6 -3.6°
Reaches altitude 10° 18:20:51 10° 278° (W) 1,255 5.3 -4.0°
Maximum altitude 18:23:40 80° 190° (S) 333 0.8 -4.5°
Drops below altitude 10° 18:26:24 10° 104° (ESE) 1,218 3.0 -5.0°
Enters shadow 18:27:10 - 104° (ESE) 1,542 3.5 -5.2°
